EW2106 Weather Reports


time (UTC)temp
F
wind
direction
speed
knots
gust
knots
rain 1hr
in
rain 24hr
in
rain mn
in
humidity
%
barometer
mb
20260505075555 52 87 0.9 5.2 0.00 0.00 0.00 79 1009.5
20260505075057 52 304 1.7 5.2 0.00 0.00 0.00 79 1009.5
20260505074607 52 0 0.9 4.3 0.00 0.00 0.00 79 1009.5
20260505074059 52 225 0.9 6.1 0.00 0.00 0.00 78 1009.5
20260505073559 52 109 1.7 6.1 0.00 0.00 0.00 78 1009.6
20260505073108 52 201 0.9 5.2 0.00 0.00 0.00 78 1009.5
20260505072557 52 0 0.9 7.0 0.00 0.00 0.00 78 1009.6
20260505072058 52 106 0.9 7.0 0.00 0.00 0.00 77 1009.5
20260505071557 52 251 0.9 7.0 0.00 0.00 0.00 77 1009.7
20260505071058 52 221 1.7 7.0 0.00 0.00 0.00 77 1009.6
20260505070558 52 142 1.7 6.1 0.00 0.00 0.00 76 1009.6
20260505070055 53 0 0.9 5.2 0.00 0.00 0.00 76 1009.6
20260505065555 53 213 0.0 5.2 0.00 0.00 0.00 75 1009.5
20260505065101 53 136 0.9 5.2 0.00 0.00 0.00 75 1009.5
20260505064603 53 0 0.9 7.0 0.00 0.00 0.00 75 1009.6
20260505064058 53 246 0.9 7.0 0.00 0.00 0.00 74 1009.4
20260505063558 53 80 0.9 5.2 0.00 0.00 0.00 74 1009.5
20260505063056 53 318 0.9 5.2 0.00 0.00 0.00 74 1009.6
20260505062559 53 168 0.0 7.0 0.00 0.00 0.00 74 1009.5
20260505062055 53 0 1.7 7.0 0.00 0.00 0.00 74 1009.5
20260505061557 53 252 1.7 7.8 0.00 0.00 0.00 74 1009.5
20260505061057 53 259 1.7 7.8 0.00 0.00 0.00 74 1009.5
20260505060558 53 200 0.9 7.8 0.00 0.00 0.00 74 1009.7
20260505060058 53 137 0.9 7.0 0.00 0.00 0.00 73 1009.6
20260505055558 53 136 1.7 7.0 0.00 0.00 0.00 74 1009.7
20260505055058 53 180 0.9 3.5 0.00 0.00 0.00 73 1009.7
20260505054604 53 0 0.9 4.3 0.00 0.00 0.00 73 1009.6
20260505054058 53 302 0.9 6.1 0.00 0.00 0.00 73 1009.7
20260505053556 53 142 1.7 6.1 0.00 0.00 0.00 73 1009.6
20260505053110 53 0 0.9 6.1 0.00 0.00 0.00 73 1009.6
20260505052557 53 0 0.9 6.1 0.00 0.00 0.00 73 1009.7
20260505052057 53 182 0.9 5.2 0.00 0.00 0.00 73 1009.7
20260505051555 53 150 0.9 5.2 0.00 0.00 0.00 73 1009.8
20260505051059 53 40 0.9 4.3 0.00 0.00 0.00 73 1009.7
20260505050557 53 113 0.9 5.2 0.00 0.00 0.00 73 1009.8
20260505041613 54 360 1.7 8.7 0.00 0.00 0.00 70 1009.9
20260505041057 54 169 1.7 6.1 0.00 0.00 0.00 70 1009.8
20260505040557 54 52 0.9 6.1 0.00 0.00 0.00 70 1009.8
20260505040056 54 296 0.9 5.2 0.00 0.00 0.00 70 1009.8
20260505035558 54 0 1.7 7.8 0.00 0.00 0.00 69 1009.8
20260505035102 54 300 2.6 7.8 0.00 0.00 0.00 69 1009.7
20260505034604 54 130 0.9 7.0 0.00 0.00 0.00 69 1009.7
20260505034058 55 142 1.7 7.0 0.00 0.00 0.00 68 1009.6
20260505033558 55 71 0.9 3.5 0.00 0.00 0.00 67 1009.6
20260505033056 55 176 0.9 9.6 0.00 0.00 0.00 67 1009.6
20260505032602 55 0 0.9 9.6 0.00 0.00 0.00 67 1009.8
20260505032057 55 168 0.9 7.0 0.00 0.00 0.00 66 1009.7
20260505031606 55 350 2.6 7.8 0.00 0.00 0.00 66 1009.6
20260505031103 55 304 0.9 7.8 0.00 0.00 0.00 66 1009.6
20260505030557 55 242 1.7 7.8 0.00 0.00 0.00 65 1009.6
20260505030058 55 145 0.9 7.0 0.00 0.00 0.00 65 1009.7
20260505025558 55 146 0.9 7.8 0.00 0.00 0.00 65 1009.6
20260505025059 55 151 2.6 8.7 0.00 0.00 0.00 65 1009.7
20260505024558 55 317 1.7 8.7 0.00 0.00 0.00 64 1009.7
20260505024057 55 100 1.7 8.7 0.00 0.00 0.00 64 1009.6
20260505023558 55 294 1.7 8.7 0.00 0.00 0.00 64 1009.6
20260505023103 55 184 2.6 9.6 0.00 0.00 0.00 64 1009.6
20260505022558 55 58 2.6 9.6 0.00 0.00 0.00 64 1009.6
20260505022057 55 136 2.6 7.8 0.00 0.00 0.00 65 1009.6
20260505021558 55 192 1.7 8.7 0.00 0.00 0.00 65 1009.7
20260505021057 55 328 2.6 8.7 0.00 0.00 0.00 65 1009.7
20260505020558 55 302 1.7 13.0 0.00 0.00 0.00 65 1009.9
20260505020057 56 150 1.7 13.0 0.00 0.00 0.00 64 1009.7
20260505015559 56 42 2.6 12.2 0.00 0.00 0.00 63 1009.6
20260505015058 56 27 0.9 7.0 0.00 0.00 0.00 62 1009.7
20260505014557 57 273 1.7 7.8 0.00 0.00 0.00 61 1009.5
20260505014101 57 320 1.7 7.8 0.00 0.00 0.00 60 1009.4
20260505013557 58 333 2.6 7.8 0.00 0.00 0.00 59 1009.3
20260505013101 58 238 1.7 7.0 0.00 0.00 0.00 57 1009.2
20260505012557 59 134 0.9 7.0 0.00 0.00 0.00 56 1009.3
20260505012057 59 222 1.7 7.0 0.00 0.00 0.00 55 1009.3
20260505011559 58 339 0.9 10.4 0.00 0.00 0.00 55 1009.0
20260505011100 58 309 1.7 10.4 0.00 0.00 0.00 56 1009.0
20260505010558 58 246 2.6 10.4 0.00 0.00 0.00 57 1008.9
20260505010056 58 92 3.5 10.4 0.00 0.00 0.00 57 1008.8
20260505005558 58 88 1.7 9.6 0.00 0.00 0.00 56 1008.8
20260505005058 59 0 2.6 10.4 0.00 0.00 0.00 56 1008.6
20260505004558 59 5 2.6 11.3 0.00 0.00 0.00 55 1008.5
20260505004057 59 205 1.7 11.3 0.00 0.00 0.00 54 1008.4
20260505003557 60 90 3.5 11.3 0.00 0.00 0.00 53 1008.4
20260505003057 60 252 2.6 11.3 0.00 0.00 0.00 52 1008.2
20260505002557 61 28 2.6 11.3 0.00 0.00 0.00 51 1008.0
20260505002058 61 312 2.6 13.0 0.00 0.00 0.00 51 1007.8
20260505001558 61 314 3.5 14.8 0.00 0.00 0.00 50 1007.7
20260505001057 61 269 2.6 14.8 0.00 0.00 0.00 51 1007.5
20260505000554 61 293 2.6 14.8 0.00 0.00 0.00 51 1007.4
20260505000106 61 154 4.3 14.8 0.00 0.00 0.00 50 1007.3
20260504235557 61 19 3.5 11.3 0.00 0.00 0.00 50 1007.3
20260504235100 61 252 2.6 11.3 0.00 0.00 0.00 50 1007.2
20260504234632 61 182 4.3 17.4 0.00 0.00 0.00 50 1007.2
20260504234058 62 24 5.2 17.4 0.00 0.00 0.00 50 1007.2
20260504233600 62 155 4.3 15.6 0.00 0.00 0.00 50 1007.1
20260504233100 62 325 3.5 13.0 0.00 0.00 0.00 50 1007.0
20260504232559 62 208 4.3 13.0 0.00 0.00 0.00 50 1006.7
20260504232057 62 113 4.3 11.3 0.00 0.00 0.00 49 1006.7
20260504231604 63 222 2.6 13.9 0.00 0.00 0.00 49 1006.6
20260504231057 63 267 3.5 13.9 0.00 0.00 0.00 48 1006.4
20260504230600 63 275 3.5 11.3 0.00 0.00 0.00 48 1006.4
20260504230058 63 223 4.3 11.3 0.00 0.00 0.00 47 1006.2
20260504225558 64 34 2.6 12.2 0.00 0.00 0.00 47 1006.1
20260504225059 64 177 3.5 12.2 0.00 0.00 0.00 47 1006.1
20260504224603 64 209 3.5 9.6 0.00 0.00 0.00 47 1006.1
20260504224100 64 200 2.6 9.6 0.00 0.00 0.00 46 1006.1
20260504223557 65 350 2.6 9.6 0.00 0.00 0.00 45 1005.9
20260504223100 65 302 3.5 9.6 0.00 0.00 0.00 44 1005.9
20260504222559 65 0 1.7 7.8 0.00 0.00 0.00 44 1005.9
20260504222057 65 94 1.7 9.6 0.00 0.00 0.00 43 1005.8
20260504221602 66 146 1.7 9.6 0.00 0.00 0.00 42 1005.8
20260504221058 67 271 1.7 8.7 0.00 0.00 0.00 40 1005.7
20260504220558 67 225 1.7 8.7 0.00 0.00 0.00 39 1005.7
20260504220058 68 140 3.5 9.6 0.00 0.00 0.00 37 1005.7
20260504215600 70 132 4.3 9.6 0.00 0.00 0.00 35 1005.6
20260504215058 72 146 1.7 7.8 0.00 0.00 0.00 30 1005.8
20260504214559 73 266 2.6 7.8 0.00 0.00 0.00 29 1005.6
20260504214057 72 146 2.6 9.6 0.00 0.00 0.00 29 1005.7
20260504213606 72 201 2.6 9.6 0.00 0.00 0.00 29 1005.7
20260504213059 71 273 4.3 9.6 0.00 0.00 0.00 28 1005.6
20260504212557 72 284 3.5 10.4 0.00 0.00 0.00 28 1005.7
20260504212059 72 176 4.3 10.4 0.00 0.00 0.00 28 1005.6
20260504211600 72 261 2.6 10.4 0.00 0.00 0.00 29 1005.7
20260504211058 72 274 3.5 10.4 0.00 0.00 0.00 28 1005.6
20260504210558 73 294 1.7 13.0 0.00 0.00 0.00 28 1005.7
20260504210110 72 218 4.3 13.0 0.00 0.00 0.00 28 1005.6
20260504205557 73 256 3.5 10.4 0.00 0.00 0.00 27 1005.7
20260504205058 73 287 3.5 10.4 0.00 0.00 0.00 27 1005.6
20260504204603 73 280 4.3 12.2 0.00 0.00 0.00 27 1005.7
20260504204057 73 170 2.6 12.2 0.00 0.00 0.00 27 1005.7
20260504203558 73 206 3.5 12.2 0.00 0.00 0.00 26 1005.8
20260504203104 72 292 1.7 15.6 0.00 0.00 0.00 27 1005.6
20260504202558 72 300 4.3 15.6 0.00 0.00 0.00 28 1005.8
20260504202102 72 296 7.0 15.6 0.00 0.00 0.00 27 1005.8
20260504201556 72 274 2.6 11.3 0.00 0.00 0.00 28 1005.8
20260504201055 72 280 3.5 14.8 0.00 0.00 0.00 27 1005.8
20260504200558 72 334 6.1 19.1 0.00 0.00 0.00 28 1005.8
20260504200112 72 264 7.8 19.1 0.00 0.00 0.00 27 1005.8
20260504195557 72 244 7.8 18.2 0.00 0.00 0.00 27 1005.9
20260504195057 73 236 5.2 13.9 0.00 0.00 0.00 28 1006.0
20260504194608 72 270 3.5 14.8 0.00 0.00 0.00 28 1005.8
20260504194058 72 269 5.2 14.8 0.00 0.00 0.00 27 1005.8
20260504193558 72 230 5.2 13.9 0.00 0.00 0.00 28 1005.7
20260504193058 72 321 5.2 12.2 0.00 0.00 0.00 28 1005.7
20260504192555 72 269 4.3 16.5 0.00 0.00 0.00 28 1005.8
20260504192057 71 298 4.3 16.5 0.00 0.00 0.00 28 1005.8
20260504191606 71 321 7.8 16.5 0.00 0.00 0.00 27 1005.8
20260504191058 72 246 7.0 15.6 0.00 0.00 0.00 27 1005.9
20260504190558 71 221 5.2 15.6 0.00 0.00 0.00 27 1005.8
20260504190128 71 246 5.2 16.5 0.00 0.00 0.00 28 1006.0
20260504185558 71 323 8.7 16.5 0.00 0.00 0.00 28 1006.0
20260504185058 71 215 4.3 13.9 0.00 0.00 0.00 28 1006.3
20260504184602 71 161 6.1 12.2 0.00 0.00 0.00 29 1006.1
20260504184056 71 252 3.5 12.2 0.00 0.00 0.00 28 1006.2
20260504183558 71 286 5.2 15.6 0.00 0.00 0.00 27 1006.0
20260504183058 71 296 3.5 15.6 0.00 0.00 0.00 28 1006.0
20260504182558 71 255 6.1 15.6 0.00 0.00 0.00 28 1006.1
20260504182058 71 263 5.2 14.8 0.00 0.00 0.00 28 1006.2
20260504181600 70 315 5.2 18.2 0.00 0.00 0.00 30 1006.2
20260504181058 69 298 4.3 18.2 0.00 0.00 0.00 28 1006.2
20260504180557 69 257 7.0 18.2 0.00 0.00 0.00 28 1006.4
20260504180155 69 254 6.1 15.6 0.00 0.00 0.00 28 1006.5
20260504175557 70 304 6.1 18.2 0.00 0.00 0.00 28 1006.4
20260504175101 69 332 4.3 18.2 0.00 0.00 0.00 29 1006.5
20260504174556 69 192 5.2 14.8 0.00 0.00 0.00 29 1006.6
20260504174058 69 304 6.1 13.0 0.00 0.00 0.00 30 1006.7
20260504173559 69 245 4.3 22.6 0.00 0.00 0.00 30 1006.6
20260504173113 69 136 7.8 22.6 0.00 0.00 0.00 29 1006.6
20260504172554 69 229 6.1 16.5 0.00 0.00 0.00 30 1006.7
20260504172058 69 241 5.2 13.0 0.00 0.00 0.00 30 1006.8
20260504171558 69 134 5.2 13.0 0.00 0.00 0.00 31 1006.5
20260504171054 69 284 6.1 12.2 0.00 0.00 0.00 31 1006.6
20260504170557 69 153 4.3 19.1 0.00 0.00 0.00 32 1006.9
20260504151055 66 285 2.6 14.8 0.00 0.02 0.00 38 1007.8
20260504150555 65 199 5.2 14.8 0.00 0.02 0.00 37 1008.0
20260504141055 63 284 5.2 13.0 0.00 0.02 0.00 39 1008.4
20260504140556 62 269 4.3 13.0 0.00 0.02 0.00 40 1008.5
20260504140109 62 234 3.5 13.0 0.00 0.02 0.00 39 1008.6
20260504130555 58 346 2.6 7.0 0.00 0.02 0.00 47 1009.1
20260504120112 52 306 1.7 7.0 0.00 0.02 0.00 51 1009.6
20260504110557 49 184 0.0 4.3 0.00 0.02 0.00 54 1009.9
20260504100553 48 293 0.9 4.3 0.00 0.02 0.00 55 1009.9
20260504081555 47 256 1.7 5.2 0.00 0.02 0.00 53 1009.3
20260504081054 47 276 0.9 5.2 0.00 0.02 0.00 54 1009.4
20260504080554 47 51 0.9 6.1 0.00 0.02 0.00 53 1009.3